Location: Newark
(44.9333°N, 0.5667°E)
Time: 20:46:35
(UTC+00:00)

X-37B - Visible Passes

Search period start: 20 September 2020 00:00
Search period end: 30 September 2020 00:00
Orbit: 386 x 387 km, 45.0° (Epoch: 18 September)

Date Brightness Start Highest point End Pass type
(mag) Time Alt. Az. Time Alt. Az. Time Alt. Az.
20 Sep 3.5 03:05:33 17° E 03:05:33 17° E 03:06:22 10° E visible
20 Sep 0.6 04:37:50 21° W 04:39:49 72° SSW 04:42:59 10° ESE visible
21 Sep 1.5 03:42:02 47° E 03:42:02 47° E 03:44:26 10° E visible
22 Sep 0.8 04:18:37 43° WSW 04:19:13 51° SSW 04:22:19 10° ESE visible
23 Sep 3.2 03:23:01 17° ESE 03:23:01 17° ESE 03:23:52 10° ESE visible
23 Sep 2.1 04:55:18 15° WSW 04:57:00 22° SSW 04:59:31 10° SSE visible
24 Sep 2.3 03:59:51 24° SSE 03:59:51 24° SSE 04:01:30 10° SE visible
25 Sep 2.8 04:36:49 13° SSW 04:36:49 13° SSW 04:37:50 10° S visible
